Stations météo

réclame
Mon MeteoGroup
St. Athan, Grande-Bretagne (3716): Température de l'air & dewpoint: 18.02.2018 21:00:00 - 24.02.2018 21:00:00 (GMT)St. Athan, Grande-Bretagne (3716): Température de l'air -20cm & Température de l'air -100cm: 18.02.2018 21:00:00 - 24.02.2018 21:00:00 (GMT)St. Athan, Grande-Bretagne (3716): Vitesse du vent & gusts: 18.02.2018 21:00:00 - 24.02.2018 21:00:00 (GMT)St. Athan, Grande-Bretagne (3716): Direction du vent: 18.02.2018 21:00:00 - 24.02.2018 21:00:00 (GMT)St. Athan, Grande-Bretagne (3716): reduced air pressure: 18.02.2018 21:00:00 - 24.02.2018 21:00:00 (GMT)St. Athan, Grande-Bretagne (3716): visibility: 18.02.2018 21:00:00 - 24.02.2018 21:00:00 (GMT)St. Athan, Grande-Bretagne (3716): Ensoleillement: 18.02.2018 21:00:00 - 24.02.2018 21:00:00 (GMT)St. Athan, Grande-Bretagne (3716): Quantités de précipitations: 18.02.2018 21:00:00 - 24.02.2018 21:00:00 (GMT)
Date & Time tt [°C] td [°C] tt -20cm [°C] tt -100cm [°C] ff [km/h] ff [knt] fx [km/h] fx [knt] dd ppp [hPa] vv [km] sd [min] rr [mm]
24.02.2018 21:00:00 2,3 -3,7 - - 28 15 - - E 1022,1 24 0 0,0
24.02.2018 20:00:00 2,4 -4,2 - - 24 13 - - E 1021,6 26 0 0,0
24.02.2018 19:00:00 2,2 -3,5 - - 16 9 - - ENE 1021,0 16 0 0,0
24.02.2018 18:00:00 3,7 -3,6 - - 22 12 - - ENE 1020,6 17 24 0,0
24.02.2018 17:00:00 4,3 -3,0 - - 22 12 - - E 1020,3 15 60 0,0
24.02.2018 16:00:00 4,9 -2,4 - - 26 14 - - ENE 1020,3 10 60 0,0
24.02.2018 15:00:00 5,0 -2,2 - - 26 14 - - ENE 1020,3 10 60 0,0
24.02.2018 14:00:00 4,8 -2,0 - - 24 13 - - E 1020,5 10 60 0,0
24.02.2018 13:00:00 4,4 -2,2 - - 29 16 - - E 1020,5 10 60 0,0
24.02.2018 12:00:00 3,2 -3,5 - - 31 17 - - ENE 1020,9 10 60 0,0
24.02.2018 11:00:00 2,4 -3,0 - - 29 16 - - ENE 1021,1 9 60 0,0
24.02.2018 10:00:00 1,8 -3,1 - - 28 15 - - ENE 1021,0 9 60 0,0
24.02.2018 09:00:00 0,6 -3,7 5,7 7,5 24 13 - - ENE 1021,0 7 60 0,0
24.02.2018 08:00:00 -0,7 -4,3 - - 22 12 - - ENE 1020,8 9 0 0,0
24.02.2018 07:00:00 -1,0 -4,4 - - 18 10 - - ENE 1019,8 10 0 0,0
24.02.2018 06:00:00 -0,1 -3,9 - - 24 13 - - ENE 1019,1 11 0 0,0
24.02.2018 05:00:00 0,3 -3,8 - - 24 13 - - E 1018,7 12 0 0,0
24.02.2018 04:00:00 0,8 -3,7 - - 24 13 - - E 1018,8 11 0 0,0
24.02.2018 03:00:00 0,3 -3,8 - - 24 13 - - E 1018,7 11 0 0,0
24.02.2018 02:00:00 0,8 -3,4 - - 22 12 - - E 1019,0 10 0 0,0
24.02.2018 01:00:00 0,8 -3,6 - - 24 13 48 26 E 1018,8 10 0 0,0
24.02.2018 00:00:00 0,5 -3,6 - - 26 14 52 28 E 1018,8 11 - 0,0
23.02.2018 23:00:00 0,7 -3,6 - - 28 15 - - E 1018,6 14 0 0,0
23.02.2018 22:00:00 0,9 -3,3 - - 26 14 - - E 1018,4 13 0 0,0
23.02.2018 21:00:00 1,4 -3,1 - - 28 15 - - E 1018,1 17 0 0,0
23.02.2018 20:00:00 1,8 -3,2 - - 22 12 - - E 1017,9 19 0 0,0
23.02.2018 19:00:00 2,6 -2,9 - - 24 13 - - E 1017,8 18 0 0,0
23.02.2018 18:00:00 2,9 -2,6 - - 24 13 - - E 1017,5 24 12 0,0
23.02.2018 17:00:00 3,9 -1,8 - - 22 12 - - E 1017,5 14 60 0,0
23.02.2018 16:00:00 5,0 -1,5 - - 24 13 - - E 1018,0 10 60 0,0
23.02.2018 15:00:00 5,0 -1,6 - - 21 11 - - E 1018,5 10 60 0,0
23.02.2018 14:00:00 4,8 -1,9 - - 28 15 - - E 1019,3 10 60 0,0
23.02.2018 13:00:00 3,6 -2,8 - - 26 14 - - E 1019,8 11 54 0,0
23.02.2018 12:00:00 3,6 -2,3 - - 28 15 - - E 1020,6 10 60 0,0
23.02.2018 11:00:00 2,6 -1,8 - - 29 16 - - E 1021,1 8 60 0,0
23.02.2018 10:00:00 1,7 -1,7 - - 26 14 - - E 1021,3 10 60 0,0
23.02.2018 09:00:00 0,7 -1,2 6,2 7,5 24 13 - - E 1021,3 5 54 0,0
23.02.2018 08:00:00 -0,6 -1,7 - - 18 10 - - E 1021,2 4,3 0 0,0
23.02.2018 07:00:00 -0,9 -2,2 - - 18 10 - - ENE 1021,1 5 0 0,0
23.02.2018 06:00:00 -0,7 -2,2 - - 21 11 - - ENE 1021,0 5 0 0,0
23.02.2018 05:00:00 -1,3 -3,0 - - 16 9 - - ENE 1021,2 7 0 0,0
23.02.2018 04:00:00 -1,0 -3,3 - - 16 9 - - ENE 1021,2 9 0 0,0
23.02.2018 03:00:00 -0,4 -3,3 - - 18 10 - - ENE 1021,4 10 0 0,0
23.02.2018 02:00:00 -0,8 -3,1 - - 16 9 - - ENE 1021,8 9 0 0,0
23.02.2018 01:00:00 -1,2 -3,7 - - 15 8 - - ENE 1022,2 12 0 0,0
23.02.2018 00:00:00 -0,8 -3,6 - - 11 6 - - E 1022,4 11 - 0,0
22.02.2018 23:00:00 -0,2 -2,9 - - 15 8 - - ENE 1022,2 8 0 0,0
22.02.2018 22:00:00 0,2 -3,1 - - 16 9 - - ENE 1022,3 7 0 0,0
22.02.2018 21:00:00 0,4 -3,2 - - 18 10 - - ENE 1022,4 8 0 0,0
22.02.2018 20:00:00 0,7 -3,1 - - 15 8 - - ENE 1022,6 8 0 0,0
22.02.2018 19:00:00 0,8 -3,1 - - 15 8 - - ENE 1022,8 7 0 0,0
22.02.2018 18:00:00 2,0 -2,5 - - 15 8 - - ENE 1022,5 9 0 0,0
22.02.2018 17:00:00 2,6 -2,5 - - 16 9 - - E 1022,2 9 6 0,0
22.02.2018 16:00:00 3,5 -2,2 - - 18 10 - - E 1022,4 8 6 0,0
22.02.2018 15:00:00 4,2 -1,5 - - 24 13 - - E 1022,6 9 24 0,0
22.02.2018 14:00:00 4,0 -1,9 - - 16 9 - - E 1023,0 10 6 0,0
22.02.2018 13:00:00 4,4 -1,4 - - 21 11 - - E 1023,5 10 36 0,0
22.02.2018 12:00:00 5,2 1,2 - - 15 8 - - E 1023,8 10 6 0,0
22.02.2018 11:00:00 3,6 1,3 - - 16 9 - - E 1024,3 8 0 0,0
22.02.2018 10:00:00 3,5 1,5 - - 15 8 - - E 1024,3 7 0 0,0
22.02.2018 09:00:00 3,3 1,2 6,7 7,5 18 10 - - E 1024,0 10 0 0,0
22.02.2018 08:00:00 2,9 0,1 - - 15 8 - - E 1023,9 25 0 0,0
22.02.2018 07:00:00 2,1 -1,1 - - 13 7 - - ENE 1023,9 40 0 0,0
22.02.2018 06:00:00 1,1 -1,4 - - 11 6 - - ENE 1024,0 35 0 0,0
22.02.2018 05:00:00 2,0 -0,2 - - 11 6 - - ENE 1024,2 23 0 0,0
22.02.2018 04:00:00 3,6 1,2 - - 16 9 - - E 1024,3 18 0 0,0
22.02.2018 03:00:00 2,5 1,4 - - 9 5 - - ENE 1024,5 10 0 0,0
22.02.2018 02:00:00 1,5 0,3 - - 9 5 - - ENE 1025,0 8 0 0,0
22.02.2018 01:00:00 1,8 0,8 - - 8 4 - - NE 1025,3 8 0 0,0
22.02.2018 00:00:00 2,3 0,9 - - 9 5 - - ENE 1025,6 9 - 0,0
21.02.2018 23:00:00 2,1 0,4 - - 11 6 - - ENE 1025,6 9 0 0,0
21.02.2018 22:00:00 1,8 -1,1 - - 8 4 - - NNE 1026,0 12 0 0,0
21.02.2018 21:00:00 2,9 0,4 - - 8 4 - - NE 1026,1 12 0 0,0
21.02.2018 20:00:00 3,2 0,4 - - 9 5 - - NE 1026,2 13 0 0,0
21.02.2018 19:00:00 2,4 -0,8 - - 9 5 - - E 1026,2 18 0 0,0
21.02.2018 18:00:00 3,9 -0,3 - - 11 6 - - ENE 1026,1 26 24 0,0
21.02.2018 17:00:00 7,0 1,4 - - 11 6 - - ENE 1026,0 10 12 0,0
21.02.2018 16:00:00 7,4 1,9 - - 15 8 - - E 1026,0 10 0 0,0
21.02.2018 15:00:00 7,2 2,0 - - 18 10 - - ENE 1026,4 10 6 0,0
21.02.2018 14:00:00 8,5 2,6 - - 13 7 - - E 1026,9 10 24 0,0
21.02.2018 13:00:00 7,6 3,2 - - 9 5 - - ENE 1027,5 10 6 0,0
21.02.2018 12:00:00 7,8 3,4 - - 11 6 - - E 1027,9 9 48 0,0
21.02.2018 11:00:00 7,4 3,3 - - 13 7 - - SE 1028,0 9 36 0,0
21.02.2018 10:00:00 6,1 3,4 - - 9 5 - - E 1028,2 9 12 0,0
21.02.2018 09:00:00 5,8 3,2 6,9 7,4 15 8 - - E 1027,7 6 0 0,0
21.02.2018 08:00:00 5,7 3,0 - - 9 5 - - NE 1027,5 30 0 0,0
21.02.2018 07:00:00 5,6 3,1 - - 9 5 - - ENE 1027,5 20 0 0,0
21.02.2018 06:00:00 5,4 2,5 - - 11 6 - - NE 1027,3 30 0 0,0
21.02.2018 05:00:00 4,4 1,3 - - 9 5 - - NNE 1026,9 45 0 0,0
21.02.2018 04:00:00 5,3 1,0 - - 11 6 - - NNE 1026,9 45 0 0,0
21.02.2018 03:00:00 4,7 0,5 - - 9 5 - - N 1027,1 30 0 0,0
21.02.2018 02:00:00 5,4 0,6 - - 8 4 - - WNW 1027,0 35 0 0,0
21.02.2018 01:00:00 5,1 0,7 - - 9 5 - - N 1027,0 35 0 0,0
21.02.2018 00:00:00 5,7 0,8 - - 16 9 - - NNE 1026,9 35 - 0,0
20.02.2018 23:00:00 6,0 1,1 - - 18 10 - - N 1026,9 30 0 0,0
20.02.2018 22:00:00 5,9 1,1 - - 15 8 - - N 1027,1 30 0 0,0
20.02.2018 21:00:00 6,0 1,0 - - 18 10 - - N 1026,9 27 0 0,0
20.02.2018 20:00:00 6,2 1,0 - - 9 5 - - NNW 1026,8 30 0 0,0
20.02.2018 19:00:00 7,1 1,1 - - 13 7 - - NW 1026,2 29 0 0,0
20.02.2018 18:00:00 8,2 0,6 - - 15 8 - - NW 1025,6 40 18 0,0
20.02.2018 17:00:00 9,5 0,2 - - 11 6 - - NNW 1025,1 35 54 0,0
20.02.2018 16:00:00 10,1 0,1 - - 26 14 - - N 1024,3 10 60 0,0
20.02.2018 15:00:00 10,6 0,4 - - 18 10 - - NNW 1024,3 10 60 0,0
20.02.2018 14:00:00 10,6 0,0 - - 21 11 - - N 1024,4 40 60 0,0
20.02.2018 13:00:00 10,0 0,7 - - 26 14 46 25 NNE 1024,2 35 60 0,0
20.02.2018 12:00:00 9,1 1,1 - - 28 15 - - N 1024,7 30 60 0,0
20.02.2018 11:00:00 8,7 1,6 - - 21 11 - - N 1024,8 21 30 0,0
20.02.2018 10:00:00 8,0 2,8 - - 13 7 - - NW 1024,7 29 36 0,0
20.02.2018 09:00:00 7,0 2,8 7,0 7,2 15 8 - - NW 1024,2 21 60 0,0
20.02.2018 08:00:00 5,5 2,5 - - 13 7 - - WNW 1023,7 24 12 0,0
20.02.2018 07:00:00 5,8 3,3 - - 11 6 - - WNW 1022,6 30 0 0,0
20.02.2018 06:00:00 6,3 4,2 - - 11 6 - - WNW 1021,9 45 0 0,0
20.02.2018 05:00:00 6,3 5,0 - - 8 4 - - WNW 1021,2 50 0 0,0
20.02.2018 04:00:00 8,0 5,6 - - 15 8 - - NW 1020,8 50 0 0,0
20.02.2018 03:00:00 7,9 7,0 - - 15 8 - - WNW 1020,8 11 0 0,0
20.02.2018 02:00:00 8,0 7,1 - - 16 9 - - WNW 1020,6 8 0 0,0
20.02.2018 01:00:00 7,8 6,6 - - 13 7 - - WNW 1020,7 12 0 0,0
20.02.2018 00:00:00 7,8 6,6 - - 13 7 - - WNW 1020,5 11 - 0,0
19.02.2018 23:00:00 9,3 7,4 - - 13 7 - - NW 1019,9 21 0 0,0
19.02.2018 22:00:00 9,5 7,7 - - 11 6 - - WNW 1019,8 30 0 0,0
19.02.2018 21:00:00 9,8 7,9 - - 15 8 - - NW 1019,9 23 0 0,0
19.02.2018 20:00:00 9,7 8,1 - - 13 7 - - NW 1019,4 13 0 0,0
19.02.2018 19:00:00 9,1 7,9 - - 11 6 - - WNW 1019,4 12 0 0,0
19.02.2018 18:00:00 9,8 8,3 - - 13 7 - - WNW 1019,2 13 0 0,0
19.02.2018 17:00:00 10,0 8,4 - - 15 8 - - WNW 1018,8 10 6 0,0
19.02.2018 16:00:00 9,8 8,6 - - 15 8 - - W 1018,6 10 12 0,0
19.02.2018 15:00:00 10,1 8,8 - - 11 6 - - W 1018,5 10 0 0,0
19.02.2018 14:00:00 9,9 8,9 - - 15 8 - - WNW 1018,5 10 0 0,0
19.02.2018 13:00:00 9,5 8,6 - - 16 9 - - W 1018,8 7 0 0,0
19.02.2018 12:00:00 10,5 10,1 - - 15 8 - - WNW 1018,8 8 0 0,0
19.02.2018 11:00:00 8,9 8,8 - - 13 7 - - WNW 1018,6 6 0 0,0
19.02.2018 10:00:00 8,1 8,0 - - 15 8 - - W 1018,6 2,0 0 0,0
19.02.2018 09:00:00 7,9 7,8 6,7 7,2 9 5 - - W 1018,5 0,2 0 0,0
19.02.2018 08:00:00 7,9 7,8 - - 9 5 - - W 1018,3 1,1 0 0,0
19.02.2018 07:00:00 7,7 7,6 - - 13 7 - - W 1018,0 0,3 0 0,0
19.02.2018 06:00:00 7,7 7,6 - - 13 7 - - W 1017,8 0,6 0 0,0
19.02.2018 05:00:00 7,7 7,5 - - 13 7 - - W 1017,7 0,4 0 0,2
19.02.2018 04:00:00 7,8 7,6 - - 11 6 - - W 1018,0 0,3 0 0,0
19.02.2018 03:00:00 7,8 7,6 - - 9 5 - - W 1018,2 0,9 0 0,0
19.02.2018 02:00:00 7,2 7,1 - - 5 3 - - WSW 1018,5 0,3 0 0,0
19.02.2018 01:00:00 8,0 7,8 - - 9 5 - - W 1018,8 0,5 0 0,2
19.02.2018 00:00:00 7,8 7,6 - - 11 6 - - W 1019,1 5 - 0,2
18.02.2018 23:00:00 7,7 7,5 - - 8 4 - - W 1019,3 1,6 0 0,2
18.02.2018 22:00:00 7,4 7,1 - - 8 4 - - WNW 1019,4 0,5 0 0,0
18.02.2018 21:00:00 7,4 6,9 - - 9 5 - - W 1019,5 19 0 0,2

tt = Température de l'air
td = dewpoint
tt -20cm = Température de l'air -20cm
tt -100cm = Température de l'air -100cm
ff = Vitesse du vent
fx = gusts
dd = Direction du vent
ppp = reduced air pressure
vv = visibility
sd = Ensoleillement
rr = Quantités de précipitations

stations d'obs. à proximité